Time,TemperatureF,DewpointF,PressureIn,WindDirection,WindDirectionDegrees,WindSpeedMPH,WindSpeedGustMPH,Humidity,HourlyPrecipIn,Conditions,Clouds,dailyrainin,SoftwareType,DateUTC
2013-03-24 00:00:00,49.5,32.6,30.09,NNW,332,0.0,0.0,52,0.00,,,0.00,Wunderground v.1.15,2013-03-24 07:00:00,
2013-03-24 00:05:00,49.6,32.7,30.09,NNW,332,0.0,0.0,52,0.00,,,0.00,Wunderground v.1.15,2013-03-24 07:05:00,
2013-03-24 00:15:00,49.8,32.9,30.09,NNW,332,0.0,0.0,52,0.00,,,0.00,Wunderground v.1.15,2013-03-24 07:15:00,
2013-03-24 00:20:00,49.9,33.0,30.09,NNW,332,0.0,0.0,52,0.00,,,0.00,Wunderground v.1.15,2013-03-24 07:20:00,
2013-03-24 00:25:00,50.0,33.5,30.09,NNW,332,0.0,0.0,53,0.00,,,0.00,Wunderground v.1.15,2013-03-24 07:25:00,
2013-03-24 00:30:00,50.1,33.6,30.09,NNW,332,0.0,0.0,53,0.00,,,0.00,Wunderground v.1.15,2013-03-24 07:30:00,
2013-03-24 00:40:00,49.8,33.8,30.09,NNW,332,0.0,0.0,54,0.00,,,0.00,Wunderground v.1.15,2013-03-24 07:40:00,
2013-03-24 00:45:00,49.6,33.6,30.09,NNW,332,0.0,0.0,54,0.00,,,0.00,Wunderground v.1.15,2013-03-24 07:45:00,
2013-03-24 00:50:00,49.2,33.7,30.09,NNW,332,0.0,0.0,55,0.00,,,0.00,Wunderground v.1.15,2013-03-24 07:50:00,
2013-03-24 00:55:00,49.0,33.5,30.09,NNW,332,0.0,0.0,55,0.00,,,0.00,Wunderground v.1.15,2013-03-24 07:55:00,
2013-03-24 01:05:00,48.4,33.9,30.09,NNW,332,0.0,0.0,57,0.00,,,0.00,Wunderground v.1.15,2013-03-24 08:05:00,
2013-03-24 01:10:00,48.0,33.5,30.09,NNW,332,0.0,0.0,57,0.00,,,0.00,Wunderground v.1.15,2013-03-24 08:10:00,
2013-03-24 01:15:00,47.9,33.8,30.09,NNW,332,0.0,0.0,58,0.00,,,0.00,Wunderground v.1.15,2013-03-24 08:15:00,
2013-03-24 01:20:00,47.7,33.6,30.09,NNW,332,0.0,0.0,58,0.00,,,0.00,Wunderground v.1.15,2013-03-24 08:20:00,
2013-03-24 01:25:00,47.6,34.0,30.09,NNW,332,0.0,0.0,59,0.00,,,0.00,Wunderground v.1.15,2013-03-24 08:25:00,
2013-03-24 01:35:00,47.6,34.0,30.09,NNW,332,0.0,0.0,59,0.00,,,0.00,Wunderground v.1.15,2013-03-24 08:35:00,
2013-03-24 01:40:00,47.8,34.6,30.08,NNW,332,0.0,0.0,60,0.00,,,0.00,Wunderground v.1.15,2013-03-24 08:40:00,
2013-03-24 01:45:00,47.8,34.6,30.08,NNW,332,0.0,0.0,60,0.00,,,0.00,Wunderground v.1.15,2013-03-24 08:45:00,
2013-03-24 01:50:00,47.9,34.3,30.09,NNW,332,0.0,0.0,59,0.00,,,0.00,Wunderground v.1.15,2013-03-24 08:50:00,
2013-03-24 02:00:00,47.9,34.7,30.08,NNW,332,0.0,0.0,60,0.00,,,0.00,Wunderground v.1.15,2013-03-24 09:00:00,
2013-03-24 02:05:00,47.8,34.6,30.09,NNW,332,0.0,0.0,60,0.00,,,0.00,Wunderground v.1.15,2013-03-24 09:05:00,
2013-03-24 02:10:00,47.6,34.8,30.09,NNW,332,0.0,0.0,61,0.00,,,0.00,Wunderground v.1.15,2013-03-24 09:10:00,
2013-03-24 02:15:00,47.4,34.6,30.08,NNW,332,0.0,0.0,61,0.00,,,0.00,Wunderground v.1.15,2013-03-24 09:15:00,
2013-03-24 02:25:00,47.1,34.7,30.09,NNW,332,0.0,0.0,62,0.00,,,0.00,Wunderground v.1.15,2013-03-24 09:25:00,
2013-03-24 02:30:00,47.0,35.0,30.09,NNW,332,0.0,0.0,63,0.00,,,0.00,Wunderground v.1.15,2013-03-24 09:30:00,
2013-03-24 02:35:00,46.9,35.0,30.09,NNW,332,0.0,0.0,63,0.00,,,0.00,Wunderground v.1.15,2013-03-24 09:35:00,
2013-03-24 02:40:00,46.7,35.6,30.09,NNW,332,0.0,0.0,65,0.00,,,0.00,Wunderground v.1.15,2013-03-24 09:40:00,
2013-03-24 02:45:00,46.3,35.6,30.10,NNW,332,0.0,0.0,66,0.00,,,0.00,Wunderground v.1.15,2013-03-24 09:45:00,
2013-03-24 02:50:00,46.2,35.5,30.09,NNW,332,0.0,0.0,66,0.00,,,0.00,Wunderground v.1.15,2013-03-24 09:50:00,
2013-03-24 02:55:00,46.0,35.7,30.09,NNW,332,0.0,0.0,67,0.00,,,0.00,Wunderground v.1.15,2013-03-24 09:55:00,
2013-03-24 03:05:00,45.4,35.5,30.10,NNW,332,0.0,0.0,68,0.00,,,0.00,Wunderground v.1.15,2013-03-24 10:05:00,
2013-03-24 03:10:00,45.1,35.2,30.09,NNW,332,0.0,0.0,68,0.00,,,0.00,Wunderground v.1.15,2013-03-24 10:10:00,
2013-03-24 03:15:00,45.1,35.2,30.09,NNW,332,0.0,0.0,68,0.00,,,0.00,Wunderground v.1.15,2013-03-24 10:15:00,
2013-03-24 03:25:00,45.0,35.4,30.09,NNW,332,0.0,0.0,69,0.00,,,0.00,Wunderground v.1.15,2013-03-24 10:25:00,
2013-03-24 03:30:00,45.0,35.4,30.09,NNW,332,0.0,0.0,69,0.00,,,0.00,Wunderground v.1.15,2013-03-24 10:30:00,
2013-03-24 03:35:00,45.1,35.2,30.08,NNW,332,0.0,0.0,68,0.00,,,0.00,Wunderground v.1.15,2013-03-24 10:35:00,
2013-03-24 03:45:00,45.3,35.7,30.08,NNW,332,0.0,0.0,69,0.00,,,0.00,Wunderground v.1.15,2013-03-24 10:45:00,
2013-03-24 03:50:00,45.3,35.4,30.08,NNW,332,0.0,0.0,68,0.00,,,0.00,Wunderground v.1.15,2013-03-24 10:50:00,
2013-03-24 03:55:00,45.4,35.5,30.08,NNW,332,0.0,0.0,68,0.00,,,0.00,Wunderground v.1.15,2013-03-24 10:55:00,
2013-03-24 04:00:00,45.5,35.2,30.08,NNW,332,0.0,0.0,67,0.00,,,0.00,Wunderground v.1.15,2013-03-24 11:00:00,
2013-03-24 04:10:00,45.8,35.8,30.08,NNW,332,0.0,0.0,68,0.00,,,0.00,Wunderground v.1.15,2013-03-24 11:10:00,
2013-03-24 04:15:00,45.7,35.7,30.08,NNW,332,0.0,0.0,68,0.00,,,0.00,Wunderground v.1.15,2013-03-24 11:15:00,
2013-03-24 04:20:00,45.6,35.6,30.08,NNW,332,0.0,0.0,68,0.00,,,0.00,Wunderground v.1.15,2013-03-24 11:20:00,
2013-03-24 04:30:00,45.7,36.5,30.08,NNW,332,0.0,0.0,70,0.00,,,0.00,Wunderground v.1.15,2013-03-24 11:30:00,
2013-03-24 04:35:00,46.4,37.1,30.08,NNW,332,0.0,0.0,70,0.00,,,0.00,Wunderground v.1.15,2013-03-24 11:35:00,
2013-03-24 04:40:00,46.5,37.2,30.08,NNW,332,0.0,0.0,70,0.00,,,0.00,Wunderground v.1.15,2013-03-24 11:40:00,
2013-03-24 04:50:00,46.3,37.0,30.08,NNW,332,0.0,0.0,70,0.00,,,0.00,Wunderground v.1.15,2013-03-24 11:50:00,
2013-03-24 05:00:00,46.0,37.5,30.08,NNW,332,0.0,0.0,72,0.00,,,0.00,Wunderground v.1.15,2013-03-24 12:00:00,
2013-03-24 05:05:00,46.0,37.1,30.09,NNW,332,0.0,0.0,71,0.00,,,0.00,Wunderground v.1.15,2013-03-24 12:05:00,
2013-03-24 05:10:00,45.9,37.0,30.09,NNW,332,0.0,0.0,71,0.00,,,0.00,Wunderground v.1.15,2013-03-24 12:10:00,
2013-03-24 05:20:00,45.5,37.0,30.09,NNW,332,0.0,0.0,72,0.00,,,0.00,Wunderground v.1.15,2013-03-24 12:20:00,
2013-03-24 05:25:00,45.5,36.6,30.08,NNW,332,0.0,0.0,71,0.00,,,0.00,Wunderground v.1.15,2013-03-24 12:25:00,
2013-03-24 05:30:00,45.8,36.9,30.08,NNW,332,0.0,0.0,71,0.00,,,0.00,Wunderground v.1.15,2013-03-24 12:30:00,
2013-03-24 05:35:00,46.1,37.2,30.08,NNW,332,0.0,0.0,71,0.00,,,0.00,Wunderground v.1.15,2013-03-24 12:35:00,
2013-03-24 05:45:00,46.7,37.4,30.08,NNW,332,0.0,0.0,70,0.00,,,0.00,Wunderground v.1.15,2013-03-24 12:45:00,
2013-03-24 05:50:00,46.8,37.5,30.08,NNW,332,0.0,0.0,70,0.00,,,0.00,Wunderground v.1.15,2013-03-24 12:50:00,
2013-03-24 05:55:00,46.7,37.8,30.08,NNW,332,0.0,0.0,71,0.00,,,0.00,Wunderground v.1.15,2013-03-24 12:55:00,
2013-03-24 06:05:00,46.1,37.2,30.08,NNW,332,0.0,0.0,71,0.00,,,0.00,Wunderground v.1.15,2013-03-24 13:05:00,
2013-03-24 06:10:00,46.0,37.1,30.09,NNW,332,0.0,2.0,71,0.00,,,0.00,Wunderground v.1.15,2013-03-24 13:10:00,
2013-03-24 06:15:00,46.3,37.0,30.09,NNW,332,0.0,2.0,70,0.00,,,0.00,Wunderground v.1.15,2013-03-24 13:15:00,
2013-03-24 06:25:00,47.0,37.0,30.09,NNW,332,0.0,1.0,68,0.00,,,0.00,Wunderground v.1.15,2013-03-24 13:25:00,
2013-03-24 06:30:00,47.6,37.6,30.09,NNW,332,0.0,0.0,68,0.00,,,0.00,Wunderground v.1.15,2013-03-24 13:30:00,
2013-03-24 06:35:00,47.5,37.5,30.09,NNW,332,0.0,0.0,68,0.00,,,0.00,Wunderground v.1.15,2013-03-24 13:35:00,
2013-03-24 06:45:00,46.8,37.2,30.09,NNW,332,0.0,0.0,69,0.00,,,0.00,Wunderground v.1.15,2013-03-24 13:45:00,
2013-03-24 06:50:00,46.5,37.2,30.09,NW,323,0.0,0.0,70,0.00,,,0.00,Wunderground v.1.15,2013-03-24 13:50:00,
2013-03-24 06:55:00,46.3,37.0,30.09,NW,323,0.0,0.0,70,0.00,,,0.00,Wunderground v.1.15,2013-03-24 13:55:00,
2013-03-24 07:05:00,45.9,37.0,30.09,NNW,346,0.0,0.0,71,0.00,,,0.00,Wunderground v.1.15,2013-03-24 14:05:00,
2013-03-24 07:10:00,45.4,36.9,30.09,NNW,346,0.0,0.0,72,0.00,,,0.00,Wunderground v.1.15,2013-03-24 14:10:00,
2013-03-24 07:15:00,45.1,37.0,30.09,NNW,346,0.0,0.0,73,0.00,,,0.00,Wunderground v.1.15,2013-03-24 14:15:00,
2013-03-24 07:20:00,45.0,36.9,30.10,NNW,346,0.0,0.0,73,0.00,,,0.00,Wunderground v.1.15,2013-03-24 14:20:00,
2013-03-24 07:30:00,45.0,37.6,30.09,NNW,346,0.0,0.0,75,0.00,,,0.00,Wunderground v.1.15,2013-03-24 14:30:00,
2013-03-24 07:35:00,45.2,37.4,30.09,NNW,346,0.0,0.0,74,0.00,,,0.00,Wunderground v.1.15,2013-03-24 14:35:00,
2013-03-24 07:40:00,45.9,38.1,30.10,NNW,346,0.0,0.0,74,0.00,,,0.00,Wunderground v.1.15,2013-03-24 14:40:00,
2013-03-24 07:45:00,46.4,38.2,30.09,North,360,0.0,0.0,73,0.00,,,0.00,Wunderground v.1.15,2013-03-24 14:45:00,
2013-03-24 07:55:00,46.6,38.8,30.10,North,360,0.0,0.0,74,0.00,,,0.00,Wunderground v.1.15,2013-03-24 14:55:00,
2013-03-24 08:00:00,46.8,38.9,30.10,North,360,0.0,0.0,74,0.00,,,0.00,Wunderground v.1.15,2013-03-24 15:00:00,
2013-03-24 08:05:00,47.3,39.1,30.10,North,360,0.0,0.0,73,0.00,,,0.00,Wunderground v.1.15,2013-03-24 15:05:00,
2013-03-24 08:15:00,48.0,40.1,30.10,North,360,0.0,0.0,74,0.00,,,0.00,Wunderground v.1.15,2013-03-24 15:15:00,
2013-03-24 08:20:00,48.3,40.4,30.10,North,360,0.0,0.0,74,0.00,,,0.00,Wunderground v.1.15,2013-03-24 15:20:00,
2013-03-24 08:25:00,49.1,40.8,30.10,North,360,0.0,0.0,73,0.00,,,0.00,Wunderground v.1.15,2013-03-24 15:25:00,
2013-03-24 08:35:00,50.4,41.3,30.10,North,360,0.0,0.0,71,0.00,,,0.00,Wunderground v.1.15,2013-03-24 15:35:00,
2013-03-24 08:40:00,51.0,41.9,30.10,North,360,0.0,0.0,71,0.00,,,0.00,Wunderground v.1.15,2013-03-24 15:40:00,
2013-03-24 08:45:00,51.8,41.6,30.10,North,360,0.0,0.0,68,0.00,,,0.00,Wunderground v.1.15,2013-03-24 15:45:00,
2013-03-24 08:50:00,52.6,41.6,30.10,North,5,0.0,0.0,66,0.00,,,0.00,Wunderground v.1.15,2013-03-24 15:50:00,
2013-03-24 08:55:00,53.2,42.1,30.10,NNE,19,0.0,0.0,66,0.00,,,0.00,Wunderground v.1.15,2013-03-24 15:55:00,
2013-03-24 09:00:00,53.5,42.0,30.10,NNE,19,0.0,0.0,65,0.00,,,0.00,Wunderground v.1.15,2013-03-24 16:00:00,
2013-03-24 09:10:00,54.3,41.1,30.10,NNE,28,0.0,0.0,61,0.00,,,0.00,Wunderground v.1.15,2013-03-24 16:10:00,
2013-03-24 09:15:00,54.8,41.6,30.10,SSE,164,0.0,0.0,61,0.00,,,0.00,Wunderground v.1.15,2013-03-24 16:15:00,
2013-03-24 09:20:00,55.4,41.7,30.10,SSE,163,0.0,0.0,60,0.00,,,0.00,Wunderground v.1.15,2013-03-24 16:20:00,
2013-03-24 09:25:00,55.8,41.7,30.10,West,259,0.0,0.0,59,0.00,,,0.00,Wunderground v.1.15,2013-03-24 16:25:00,
2013-03-24 09:30:00,55.9,42.6,30.10,West,259,0.0,1.0,61,0.00,,,0.00,Wunderground v.1.15,2013-03-24 16:30:00,
2013-03-24 09:35:00,56.0,41.4,30.11,WSW,254,0.0,1.0,58,0.00,,,0.00,Wunderground v.1.15,2013-03-24 16:35:00,
2013-03-24 09:40:00,56.0,40.1,30.11,WSW,256,0.0,0.0,55,0.00,,,0.00,Wunderground v.1.15,2013-03-24 16:40:00,
2013-03-24 09:50:00,57.1,40.1,30.11,SW,236,0.0,0.0,53,0.00,,,0.00,Wunderground v.1.15,2013-03-24 16:50:00,
2013-03-24 09:55:00,57.7,41.2,30.11,West,275,0.0,2.0,54,0.00,,,0.00,Wunderground v.1.15,2013-03-24 16:55:00,
2013-03-24 10:00:00,58.4,40.8,30.11,West,278,0.0,0.0,52,0.00,,,0.00,Wunderground v.1.15,2013-03-24 17:00:00,
2013-03-24 10:05:00,58.9,40.3,30.11,West,268,0.0,0.0,50,0.00,,,0.00,Wunderground v.1.15,2013-03-24 17:05:00,
2013-03-24 10:15:00,58.9,40.8,30.11,West,259,0.0,0.0,51,0.00,,,0.00,Wunderground v.1.15,2013-03-24 17:15:00,
2013-03-24 10:20:00,59.0,40.9,30.11,SSW,213,1.0,1.0,51,0.00,,,0.00,Wunderground v.1.15,2013-03-24 17:20:00,
2013-03-24 10:25:00,59.4,41.8,30.11,WSW,252,0.0,2.0,52,0.00,,,0.00,Wunderground v.1.15,2013-03-24 17:25:00,
2013-03-24 10:30:00,59.8,42.1,30.11,WNW,301,1.0,1.0,52,0.00,,,0.00,Wunderground v.1.15,2013-03-24 17:30:00,
2013-03-24 10:40:00,61.3,42.0,30.10,SSE,161,0.0,2.0,49,0.00,,,0.00,Wunderground v.1.15,2013-03-24 17:40:00,
2013-03-24 10:45:00,61.9,41.4,30.10,SSE,161,1.0,2.0,47,0.00,,,0.00,Wunderground v.1.15,2013-03-24 17:45:00,
2013-03-24 10:50:00,61.9,41.4,30.10,South,188,1.0,1.0,47,0.00,,,0.00,Wunderground v.1.15,2013-03-24 17:50:00,
2013-03-24 11:00:00,62.6,42.1,30.10,ESE,111,1.0,2.0,47,0.00,,,0.00,Wunderground v.1.15,2013-03-24 18:00:00,
2013-03-24 11:05:00,62.4,41.9,30.10,ESE,111,2.0,2.0,47,0.00,,,0.00,Wunderground v.1.15,2013-03-24 18:05:00,
2013-03-24 11:15:00,62.1,41.6,30.10,SSE,150,2.0,2.0,47,0.00,,,0.00,Wunderground v.1.15,2013-03-24 18:15:00,
2013-03-24 11:20:00,62.1,42.2,30.10,ENE,78,2.0,2.0,48,0.00,,,0.00,Wunderground v.1.15,2013-03-24 18:20:00,
2013-03-24 11:30:00,62.7,42.7,30.10,East,88,1.0,1.0,48,0.00,,,0.00,Wunderground v.1.15,2013-03-24 18:30:00,
2013-03-24 11:35:00,63.5,43.4,30.09,East,88,1.0,1.0,48,0.00,,,0.00,Wunderground v.1.15,2013-03-24 18:35:00,
2013-03-24 11:40:00,63.7,42.5,30.09,East,84,2.0,2.0,46,0.00,,,0.00,Wunderground v.1.15,2013-03-24 18:40:00,
2013-03-24 11:45:00,63.8,42.6,30.09,SE,139,2.0,2.0,46,0.00,,,0.00,Wunderground v.1.15,2013-03-24 18:45:00,
2013-03-24 11:50:00,64.3,42.5,30.09,SE,125,1.0,4.0,45,0.00,,,0.00,Wunderground v.1.15,2013-03-24 18:50:00,
2013-03-24 11:55:00,64.6,42.2,30.09,East,82,1.0,4.0,44,0.00,,,0.00,Wunderground v.1.15,2013-03-24 18:55:00,
2013-03-24 12:00:00,64.7,42.3,30.09,ESE,107,1.0,1.0,44,0.00,,,0.00,Wunderground v.1.15,2013-03-24 19:00:00,
2013-03-24 12:10:00,65.2,42.1,30.09,NNW,344,2.0,2.0,43,0.00,,,0.00,Wunderground v.1.15,2013-03-24 19:10:00,
2013-03-24 12:15:00,64.9,41.9,30.09,SE,145,2.0,2.0,43,0.00,,,0.00,Wunderground v.1.15,2013-03-24 19:15:00,
2013-03-24 12:20:00,65.8,43.9,30.09,ESE,119,1.0,1.0,45,0.00,,,0.00,Wunderground v.1.15,2013-03-24 19:20:00,
2013-03-24 12:25:00,66.5,42.1,30.08,SSE,152,1.0,1.0,41,0.00,,,0.00,Wunderground v.1.15,2013-03-24 19:25:00,
2013-03-24 12:30:00,66.8,43.6,30.08,SE,139,1.0,3.0,43,0.00,,,0.00,Wunderground v.1.15,2013-03-24 19:30:00,
2013-03-24 12:40:00,66.1,42.3,30.08,South,171,1.0,1.0,42,0.00,,,0.00,Wunderground v.1.15,2013-03-24 19:40:00,
2013-03-24 12:45:00,66.7,43.5,30.08,SSE,167,1.0,2.0,43,0.00,,,0.00,Wunderground v.1.15,2013-03-24 19:45:00,
2013-03-24 12:55:00,68.1,43.5,30.08,South,170,1.0,2.0,41,0.00,,,0.00,Wunderground v.1.15,2013-03-24 19:55:00,
2013-03-24 13:00:00,67.9,43.3,30.08,SSE,165,2.0,2.0,41,0.00,,,0.00,Wunderground v.1.15,2013-03-24 20:00:00,
2013-03-24 13:05:00,67.6,46.6,30.08,WSW,237,2.0,4.0,47,0.00,,,0.00,Wunderground v.1.15,2013-03-24 20:05:00,
2013-03-24 13:10:00,67.2,47.4,30.08,NW,318,3.0,4.0,49,0.00,,,0.00,Wunderground v.1.15,2013-03-24 20:10:00,
2013-03-24 13:20:00,67.4,48.6,30.07,West,280,2.0,5.0,51,0.00,,,0.00,Wunderground v.1.15,2013-03-24 20:20:00,
2013-03-24 13:25:00,67.3,49.1,30.07,WSW,244,2.0,5.0,52,0.00,,,0.00,Wunderground v.1.15,2013-03-24 20:25:00,
2013-03-24 13:30:00,66.8,49.1,30.07,West,263,3.0,3.0,53,0.00,,,0.00,Wunderground v.1.15,2013-03-24 20:30:00,
2013-03-24 13:35:00,66.2,49.6,30.07,WSW,242,4.0,5.0,55,0.00,,,0.00,Wunderground v.1.15,2013-03-24 20:35:00,
2013-03-24 13:40:00,66.7,49.5,30.07,WSW,250,2.0,2.0,54,0.00,,,0.00,Wunderground v.1.15,2013-03-24 20:40:00,
2013-03-24 13:45:00,66.9,49.7,30.06,NNW,331,2.0,2.0,54,0.00,,,0.00,Wunderground v.1.15,2013-03-24 20:45:00,
2013-03-24 13:55:00,66.4,50.2,30.06,WSW,248,3.0,7.0,56,0.00,,,0.00,Wunderground v.1.15,2013-03-24 20:55:00,
2013-03-24 14:00:00,66.7,49.5,30.06,NNW,339,3.0,6.0,54,0.00,,,0.00,Wunderground v.1.15,2013-03-24 21:00:00,
2013-03-24 14:05:00,66.2,49.6,30.06,SE,136,3.0,6.0,55,0.00,,,0.00,Wunderground v.1.15,2013-03-24 21:05:00,
2013-03-24 14:15:00,67.1,49.4,30.05,NW,321,2.0,3.0,53,0.00,,,0.00,Wunderground v.1.15,2013-03-24 21:15:00,
2013-03-24 14:20:00,66.6,48.9,30.05,West,268,2.0,2.0,53,0.00,,,0.00,Wunderground v.1.15,2013-03-24 21:20:00,
2013-03-24 14:25:00,66.7,49.5,30.04,East,92,2.0,2.0,54,0.00,,,0.00,Wunderground v.1.15,2013-03-24 21:25:00,
2013-03-24 14:30:00,67.7,49.9,30.04,East,92,0.0,0.0,53,0.00,,,0.00,Wunderground v.1.15,2013-03-24 21:30:00,
2013-03-24 14:35:00,68.7,49.8,30.04,North,350,1.0,1.0,51,0.00,,,0.00,Wunderground v.1.15,2013-03-24 21:35:00,
2013-03-24 14:40:00,68.6,49.2,30.04,WNW,300,2.0,5.0,50,0.00,,,0.00,Wunderground v.1.15,2013-03-24 21:40:00,
2013-03-24 14:50:00,68.3,48.9,30.03,NW,317,2.0,2.0,50,0.00,,,0.00,Wunderground v.1.15,2013-03-24 21:50:00,
2013-03-24 14:55:00,68.2,49.4,30.03,West,269,2.0,2.0,51,0.00,,,0.00,Wunderground v.1.15,2013-03-24 21:55:00,
2013-03-24 15:00:00,69.5,50.6,30.03,WSW,252,1.0,4.0,51,0.00,,,0.00,Wunderground v.1.15,2013-03-24 22:00:00,
2013-03-24 15:10:00,69.9,49.3,30.03,NW,317,2.0,2.0,48,0.00,,,0.00,Wunderground v.1.15,2013-03-24 22:10:00,
2013-03-24 15:20:00,70.5,49.9,30.02,WSW,252,1.0,1.0,48,0.00,,,0.00,Wunderground v.1.15,2013-03-24 22:20:00,
2013-03-24 15:30:00,71.1,49.8,30.02,WSW,240,1.0,3.0,47,0.00,,,0.00,Wunderground v.1.15,2013-03-24 22:30:00,
2013-03-24 15:35:00,70.8,49.6,30.02,West,265,2.0,3.0,47,0.00,,,0.00,Wunderground v.1.15,2013-03-24 22:35:00,
2013-03-24 15:40:00,69.2,48.7,30.02,West,267,3.0,6.0,48,0.00,,,0.00,Wunderground v.1.15,2013-03-24 22:40:00,
2013-03-24 15:45:00,69.1,49.1,30.02,WNW,290,3.0,6.0,49,0.00,,,0.00,Wunderground v.1.15,2013-03-24 22:45:00,
2013-03-24 15:55:00,68.6,48.7,30.02,NNE,17,3.0,4.0,49,0.00,,,0.00,Wunderground v.1.15,2013-03-24 22:55:00,
2013-03-24 16:00:00,68.3,48.4,30.02,SSW,204,3.0,3.0,49,0.00,,,0.00,Wunderground v.1.15,2013-03-24 23:00:00,
2013-03-24 16:05:00,67.9,47.5,30.02,SSE,158,2.0,3.0,48,0.00,,,0.00,Wunderground v.1.15,2013-03-24 23:05:00,
2013-03-24 16:10:00,67.6,46.1,30.01,NNW,331,3.0,3.0,46,0.00,,,0.00,Wunderground v.1.15,2013-03-24 23:10:00,
2013-03-24 16:15:00,67.3,45.8,30.01,NW,319,4.0,4.0,46,0.00,,,0.00,Wunderground v.1.15,2013-03-24 23:15:00,
2013-03-24 16:20:00,67.0,44.9,30.01,NW,325,4.0,6.0,45,0.00,,,0.00,Wunderground v.1.15,2013-03-24 23:20:00,
2013-03-24 16:25:00,66.6,45.2,30.01,WSW,244,4.0,6.0,46,0.00,,,0.00,Wunderground v.1.15,2013-03-24 23:25:00,
2013-03-24 16:30:00,67.5,45.4,30.00,SSW,196,2.0,2.0,45,0.00,,,0.00,Wunderground v.1.15,2013-03-24 23:30:00,
2013-03-24 16:40:00,68.5,45.7,30.00,NW,309,2.0,4.0,44,0.00,,,0.00,Wunderground v.1.15,2013-03-24 23:40:00,
2013-03-24 16:45:00,68.1,45.9,30.00,NW,323,3.0,4.0,45,0.00,,,0.00,Wunderground v.1.15,2013-03-24 23:45:00,
2013-03-24 16:50:00,68.6,45.8,29.99,WNW,284,2.0,2.0,44,0.00,,,0.00,Wunderground v.1.15,2013-03-24 23:50:00,
2013-03-24 16:55:00,69.2,45.1,29.99,West,275,2.0,2.0,42,0.00,,,0.00,Wunderground v.1.15,2013-03-24 23:55:00,
2013-03-24 17:05:00,68.6,45.2,30.00,WNW,284,3.0,3.0,43,0.00,,,0.00,Wunderground v.1.15,2013-03-25 00:05:00,
2013-03-24 17:10:00,68.1,44.1,30.00,WNW,285,3.0,3.0,42,0.00,,,0.00,Wunderground v.1.15,2013-03-25 00:10:00,
2013-03-24 17:15:00,67.5,44.8,30.00,WNW,292,3.0,6.0,44,0.00,,,0.00,Wunderground v.1.15,2013-03-25 00:15:00,
2013-03-24 17:20:00,66.8,43.6,30.00,NW,309,3.0,3.0,43,0.00,,,0.00,Wunderground v.1.15,2013-03-25 00:20:00,
2013-03-24 17:30:00,67.4,42.9,30.00,East,94,1.0,1.0,41,0.00,,,0.00,Wunderground v.1.15,2013-03-25 00:30:00,
2013-03-24 17:35:00,67.5,43.0,30.00,WNW,292,1.0,1.0,41,0.00,,,0.00,Wunderground v.1.15,2013-03-25 00:35:00,
2013-03-24 17:45:00,67.0,43.1,30.00,NNW,331,1.0,5.0,42,0.00,,,0.00,Wunderground v.1.15,2013-03-25 00:45:00,
2013-03-24 17:50:00,66.5,43.9,29.99,West,278,1.0,3.0,44,0.00,,,0.00,Wunderground v.1.15,2013-03-25 00:50:00,
2013-03-24 17:55:00,66.1,42.9,29.99,NNW,346,2.0,3.0,43,0.00,,,0.00,Wunderground v.1.15,2013-03-25 00:55:00,
2013-03-24 18:00:00,64.9,43.0,29.99,NW,321,2.0,2.0,45,0.00,,,0.00,Wunderground v.1.15,2013-03-25 01:00:00,
2013-03-24 18:10:00,64.1,45.1,29.99,West,280,1.0,1.0,50,0.00,,,0.00,Wunderground v.1.15,2013-03-25 01:10:00,
2013-03-24 18:15:00,63.8,45.3,29.99,WNW,284,0.0,1.0,51,0.00,,,0.00,Wunderground v.1.15,2013-03-25 01:15:00,
2013-03-24 18:20:00,63.4,44.9,29.99,WNW,284,0.0,0.0,51,0.00,,,0.00,Wunderground v.1.15,2013-03-25 01:20:00,
2013-03-24 18:30:00,62.5,45.1,29.99,WNW,288,0.0,0.0,53,0.00,,,0.00,Wunderground v.1.15,2013-03-25 01:30:00,
2013-03-24 18:35:00,62.2,45.3,29.99,WNW,288,0.0,0.0,54,0.00,,,0.00,Wunderground v.1.15,2013-03-25 01:35:00,
2013-03-24 18:40:00,61.7,45.4,29.99,WNW,292,0.0,0.0,55,0.00,,,0.00,Wunderground v.1.15,2013-03-25 01:40:00,
2013-03-24 18:50:00,61.0,44.7,29.99,NW,309,0.0,0.0,55,0.00,,,0.00,Wunderground v.1.15,2013-03-25 01:50:00,
2013-03-24 18:55:00,60.8,44.5,29.99,NW,314,1.0,2.0,55,0.00,,,0.00,Wunderground v.1.15,2013-03-25 01:55:00,
2013-03-24 19:00:00,60.4,45.5,29.99,WNW,290,2.0,2.0,58,0.00,,,0.00,Wunderground v.1.15,2013-03-25 02:00:00,
2013-03-24 19:10:00,59.4,45.1,29.99,WNW,302,2.0,2.0,59,0.00,,,0.00,Wunderground v.1.15,2013-03-25 02:10:00,
2013-03-24 19:15:00,59.0,44.7,29.99,NW,316,2.0,2.0,59,0.00,,,0.00,Wunderground v.1.15,2013-03-25 02:15:00,
2013-03-24 19:20:00,58.7,44.0,29.99,NW,313,1.0,1.0,58,0.00,,,0.00,Wunderground v.1.15,2013-03-25 02:20:00,
2013-03-24 19:25:00,58.4,44.6,29.99,NW,313,0.0,1.0,60,0.00,,,0.00,Wunderground v.1.15,2013-03-25 02:25:00,
2013-03-24 19:35:00,57.1,44.6,29.99,NW,313,0.0,0.0,63,0.00,,,0.00,Wunderground v.1.15,2013-03-25 02:35:00,
2013-03-24 19:40:00,56.3,44.3,29.99,NW,313,0.0,0.0,64,0.00,,,0.00,Wunderground v.1.15,2013-03-25 02:40:00,
2013-03-24 19:45:00,55.7,43.7,29.99,NW,313,0.0,0.0,64,0.00,,,0.00,Wunderground v.1.15,2013-03-25 02:45:00,
2013-03-24 19:55:00,55.3,44.1,29.99,WNW,300,0.0,0.0,66,0.00,,,0.00,Wunderground v.1.15,2013-03-25 02:55:00,
2013-03-24 20:00:00,55.0,43.4,29.99,WNW,300,0.0,0.0,65,0.00,,,0.00,Wunderground v.1.15,2013-03-25 03:00:00,
2013-03-24 20:10:00,54.2,43.1,29.99,WNW,294,0.0,1.0,66,0.00,,,0.00,Wunderground v.1.15,2013-03-25 03:10:00,
2013-03-24 20:15:00,53.9,42.4,29.99,WNW,294,0.0,1.0,65,0.00,,,0.00,Wunderground v.1.15,2013-03-25 03:15:00,
2013-03-24 20:25:00,53.4,41.9,29.99,WNW,300,0.0,0.0,65,0.00,,,0.00,Wunderground v.1.15,2013-03-25 03:25:00,
2013-03-24 20:30:00,53.2,41.7,30.00,WNW,300,0.0,0.0,65,0.00,,,0.00,Wunderground v.1.15,2013-03-25 03:30:00,
2013-03-24 20:35:00,53.0,41.9,30.00,WNW,300,0.0,0.0,66,0.00,,,0.00,Wunderground v.1.15,2013-03-25 03:35:00,
2013-03-24 20:45:00,52.1,42.2,30.00,West,281,0.0,0.0,69,0.00,,,0.00,Wunderground v.1.15,2013-03-25 03:45:00,
2013-03-24 20:50:00,51.7,42.2,30.00,West,267,1.0,2.0,70,0.00,,,0.00,Wunderground v.1.15,2013-03-25 03:50:00,
2013-03-24 20:55:00,51.5,42.4,30.00,West,259,1.0,2.0,71,0.00,,,0.00,Wunderground v.1.15,2013-03-25 03:55:00,
2013-03-24 21:00:00,51.4,42.3,30.00,West,272,1.0,1.0,71,0.00,,,0.00,Wunderground v.1.15,2013-03-25 04:00:00,
2013-03-24 21:05:00,51.2,42.1,30.00,West,263,1.0,1.0,71,0.00,,,0.00,Wunderground v.1.15,2013-03-25 04:05:00,
2013-03-24 21:10:00,50.7,42.0,30.00,West,266,0.0,0.0,72,0.00,,,0.00,Wunderground v.1.15,2013-03-25 04:10:00,
2013-03-24 21:15:00,50.3,42.0,30.00,West,266,0.0,0.0,73,0.00,,,0.00,Wunderground v.1.15,2013-03-25 04:15:00,
2013-03-24 21:25:00,49.8,41.8,30.00,West,266,0.0,0.0,74,0.00,,,0.00,Wunderground v.1.15,2013-03-25 04:25:00,
2013-03-24 21:30:00,49.7,42.1,30.01,West,268,0.0,0.0,75,0.00,,,0.00,Wunderground v.1.15,2013-03-25 04:30:00,
2013-03-24 21:35:00,49.8,42.2,30.01,West,275,0.0,0.0,75,0.00,,,0.00,Wunderground v.1.15,2013-03-25 04:35:00,
2013-03-24 21:45:00,50.3,42.3,30.01,WNW,288,0.0,0.0,74,0.00,,,0.00,Wunderground v.1.15,2013-03-25 04:45:00,
2013-03-24 21:50:00,50.3,42.3,30.01,WNW,292,0.0,0.0,74,0.00,,,0.00,Wunderground v.1.15,2013-03-25 04:50:00,
2013-03-24 21:55:00,50.2,42.2,30.01,NW,309,0.0,0.0,74,0.00,,,0.00,Wunderground v.1.15,2013-03-25 04:55:00,
2013-03-24 22:00:00,50.0,42.0,30.01,NW,309,0.0,0.0,74,0.00,,,0.00,Wunderground v.1.15,2013-03-25 05:00:00,
2013-03-24 22:10:00,49.7,42.1,30.01,NW,309,0.0,0.0,75,0.00,,,0.00,Wunderground v.1.15,2013-03-25 05:10:00,
2013-03-24 22:15:00,49.6,42.3,30.01,NW,309,0.0,0.0,76,0.00,,,0.00,Wunderground v.1.15,2013-03-25 05:15:00,
2013-03-24 22:25:00,49.4,42.1,30.01,NW,309,0.0,0.0,76,0.00,,,0.00,Wunderground v.1.15,2013-03-25 05:25:00,
2013-03-24 22:30:00,49.3,42.1,30.01,NW,309,0.0,0.0,76,0.00,,,0.00,Wunderground v.1.15,2013-03-25 05:30:00,
2013-03-24 22:35:00,49.3,42.4,30.01,NW,309,0.0,0.0,77,0.00,,,0.00,Wunderground v.1.15,2013-03-25 05:35:00,
2013-03-24 22:40:00,49.2,42.3,30.01,NW,309,0.0,0.0,77,0.00,,,0.00,Wunderground v.1.15,2013-03-25 05:40:00,
2013-03-24 22:50:00,48.8,42.2,30.02,WNW,302,0.0,1.0,78,0.00,,,0.00,Wunderground v.1.15,2013-03-25 05:50:00,
2013-03-24 22:55:00,48.6,42.7,30.02,NW,307,0.0,1.0,80,0.00,,,0.00,Wunderground v.1.15,2013-03-25 05:55:00,
2013-03-24 23:00:00,48.5,42.6,30.02,NW,316,0.0,1.0,80,0.00,,,0.00,Wunderground v.1.15,2013-03-25 06:00:00,
2013-03-24 23:10:00,48.5,42.6,30.02,NNW,334,0.0,0.0,80,0.00,,,0.00,Wunderground v.1.15,2013-03-25 06:10:00,
2013-03-24 23:15:00,48.4,42.5,30.02,North,355,0.0,1.0,80,0.00,,,0.00,Wunderground v.1.15,2013-03-25 06:15:00,
2013-03-24 23:25:00,48.5,42.6,30.02,NW,323,0.0,0.0,80,0.00,,,0.00,Wunderground v.1.15,2013-03-25 06:25:00,
2013-03-24 23:30:00,48.5,42.6,30.02,NW,323,0.0,0.0,80,0.00,,,0.00,Wunderground v.1.15,2013-03-25 06:30:00,
2013-03-24 23:35:00,48.5,42.6,30.02,NW,323,0.0,0.0,80,0.00,,,0.00,Wunderground v.1.15,2013-03-25 06:35:00,
2013-03-24 23:40:00,48.4,42.5,30.02,NW,323,0.0,0.0,80,0.00,,,0.00,Wunderground v.1.15,2013-03-25 06:40:00,
2013-03-24 23:50:00,48.5,42.6,30.02,NNW,343,0.0,0.0,80,0.00,,,0.00,Wunderground v.1.15,2013-03-25 06:50:00,
2013-03-24 23:55:00,48.6,42.7,30.02,NNW,343,0.0,0.0,80,0.00,,,0.00,Wunderground v.1.15,2013-03-25 06:55:00,